[[{"header":{"parameterUnit":"m.s-1","parameterCategory":2,"la1":30.2991,"la2":30.254,"lo1":-89.0895,"lo2":-89.0444,"dy":0.0017,"dx":0.0017,"nx":28,"ny":28,"refTime":"2025-02-24T03:00:00:Z","depth":"0","parameterNumber":2,"parameterNumberName":"U-component_of_CURRENTS"},"data":[0,0,0,0,0,0,0,0,0,0,0,0,0,0,0,0,0,0,0,0,0,0,0,0,0,0,0,0,0,0,0,0,0,0,0,0,0,0,0,0,0,0,0,0,0,0,0,0,0,0,0,0,0,0,0,0,0,0,0.3187,0.3188,0,0.3176,0.3176,0.3175,0.3128,0.3127,0.3126,0.3126,0.3071,0.307,0.3069,0,0,0,0,0,0,0,0,0,0,0,0,0,0.3181,0.3181,0.3187,0.3188,0.3188,0.3176,0.3176,0.3175,0.3128,0.3127,0.3126,0.3125,0.3071,0.307,0.3069,0,0,0,0,0,0,0,0,0,0,0,0,0,0.3175,0.3181,0.3187,0.3165,0.3163,0.3176,0.3176,0.3175,0.3128,0.3127,0.3126,0.3125,0.3071,0.307,0.3069,0.3086,0,0,0.3066,0.3065,0,0,0,0,0,0,0,0,0.3175,0.3174,0.3168,0.3167,0.3165,0.3155,0.3153,0.3144,0.3128,0.3138,0.3126,0.3124,0.3098,0.3095,0.3091,0.3083,0.3081,0.3066,0.3065,0.3065,0.3064,0,0,0,0,0,0,0,0.3175,0.3175,0.3179,0.3169,0.3167,0.3161,0.3158,0.3151,0.3121,0.3137,0.3134,0.3139,0.3096,0.3092,0.3089,0.308,0.3066,0.3065,0.3064,0.3064,0.3101,0.3102,0,0,0,0,0,0,0.3185,0.3175,0.318,0.3179,0.3171,0.3162,0.3159,0.3157,0.3122,0.3117,0.314,0.3137,0.3095,0.3091,0.3087,0.3114,0.3065,0.3064,0.3063,0.3099,0.3101,0.3103,0,0,0,0,0,0,0.3184,0.3185,0.318,0.318,0.318,0.3163,0.3161,0.3157,0.3156,0.3126,0.3119,0.3144,0.3093,0.3089,0.3091,0.3111,0.3063,0.3062,0.3097,0.31,0.3102,0.3161,0,0,0,0,0,0,0.3184,0.3185,0.3191,0.3181,0.318,0.3195,0.3163,0.3158,0.3162,0.3158,0.3127,0.3121,0.3092,0.3093,0.309,0.3108,0.3061,0.3095,0.3098,0.3101,0.3157,0.3166,0.3173,0,0,0,0,0,0.3184,0.32,0.3191,0.3192,0.3187,0.3196,0.3196,0.3178,0.3164,0.3171,0.3153,0.3122,0.3111,0.3094,0.309,0.3108,0.3094,0.3097,0.3101,0.3154,0.3164,0.3173,0,0,0,0,0,0,0.3201,0.3197,0.3186,0.32,0.3201,0.319,0.3201,0.3189,0.3181,0.3177,0.3141,0.3134,0.3146,0.3126,0.3108,0.3131,0.3098,0.3101,0.314,0.3149,0.3157,0.3172,0.306,0,0,0,0,0,0.321,0.3219,0.3213,0.3226,0.3229,0.3217,0.3221,0.321,0.3202,0.3197,0.3175,0.3161,0.316,0.3152,0.3147,0.3158,0.3156,0.3169,0.3177,0.3183,0.3196,0.3218,0.3228,0.3115,0.3115,0.3115,0,0,0.3221,0.3222,0.3226,0.3231,0.323,0.324,0.3216,0.3229,0.3238,0.3194,0.32,0.3189,0.3172,0.3183,0.3187,0.3165,0.3216,0.3188,0.3193,0.3202,0.3223,0.3234,0.3243,0.3117,0.3117,0.3117,0,0,0.3249,0.3249,0.3263,0.3268,0.3275,0.327,0.3278,0.3271,0.3269,0.3278,0.3255,0.3261,0.3245,0.3242,0.3238,0.3289,0.326,0.3283,0.3326,0.3347,0.3357,0.3365,0.3378,0.3387,0.328,0.3281,0.3281,0,0.3263,0.3269,0.3271,0.3286,0.329,0.3286,0.3297,0.3307,0.3301,0.3306,0.3288,0.3292,0.3277,0.33,0.3317,0.3306,0.3309,0.3288,0.3357,0.3365,0.3372,0.3384,0.3393,0.3284,0.3284,0.3283,0.3283,0,0.3293,0.3299,0.3313,0.3324,0.3335,0.3347,0.3356,0.3369,0.3365,0.3365,0.3388,0.3376,0.3374,0.3376,0.336,0.3407,0.339,0.3368,0.3331,0.3387,0.3396,0.3405,0.3289,0.3287,0.3286,0.3286,0,0,0.3303,0.3327,0.3328,0.3324,0.3349,0.3351,0.3392,0.341,0.3429,0.3436,0.3457,0.3472,0.3465,0.3463,0.3448,0.3469,0.3525,0.3444,0.3443,0.3453,0.357,0.3535,0.354,0.351,0.3512,0.3514,0.3556,0,0.3316,0.3336,0.3352,0.3363,0.3365,0.3383,0.3413,0.3437,0.3459,0.3484,0.3497,0.3514,0.3499,0.3499,0.3524,0.3528,0.355,0.3515,0.3518,0.3518,0.3477,0.355,0.3429,0.3455,0.3564,0.3565,0.3566,0,0.3317,0.333,0.3342,0.3354,0.3358,0.3374,0.3408,0.3439,0.3497,0.3518,0.3556,0.3561,0.3608,0.3577,0.3628,0.3605,0.36,0.3598,0.3599,0.3552,0.3499,0.3417,0.3465,0.3381,0.3579,0.3578,0.3577,0,0.3278,0.3308,0.3308,0.3314,0.3346,0.3358,0.3384,0.3442,0.3477,0.3548,0.3573,0.3625,0.3648,0.3668,0.3681,0.3655,0.373,0.3685,0.3647,0.3644,0.3536,0.352,0.3499,0.3719,0.3719,0.3719,0.3719,0,0.3255,0.3247,0.3287,0.3281,0.329,0.3329,0.3358,0.3404,0.3482,0.3516,0.3583,0.3621,0.3673,0.3714,0.3713,0.3723,0.3757,0.3679,0.3663,0.3554,0.354,0.3455,0.34,0.372,0.372,0.372,0.3719,0,0.3187,0.3215,0.3211,0.3251,0.3263,0.3269,0.3337,0.3361,0.3452,0.3503,0.3527,0.3638,0.3699,0.3742,0.3786,0.3758,0.3663,0.3756,0.3627,0.3596,0.3459,0.3411,0.3259,0.316,0.3716,0.3716,0.3715,0,0.3145,0.3137,0.3175,0.3173,0.3185,0.3213,0.3228,0.3331,0.3368,0.3498,0.3511,0.3616,0.367,0.3755,0.3745,0.3756,0.3635,0.3626,0.3554,0.3459,0.3395,0.3259,0.3176,0.3433,0.343,0.3428,0.3426,0,0.3066,0.3082,0.3086,0.3092,0.3101,0.3117,0.3157,0.319,0.3298,0.3356,0.3447,0.3517,0.3626,0.3613,0.3651,0.3632,0.345,0.358,0.3512,0.3208,0.3028,0.2921,0.3399,0.3407,0.3409,0.341,0.3411,0.3412,0.2998,0.2984,0.2995,0.2984,0.2996,0.2995,0.2976,0.3037,0.3086,0.3139,0.3301,0.3346,0.345,0.3504,0.3474,0.3352,0.3312,0.323,0.3193,0.3075,0.2933,0.3377,0.3348,0.335,0.3351,0.3352,0.3353,0,0.2892,0.2887,0.288,0.2859,0.282,0.2875,0.289,0.2853,0.2848,0.2967,0.3037,0.311,0.3125,0.3178,0.3133,0.2995,0.2853,0.2889,0.2671,0.2618,0.3048,0.2992,0.2849,0.2849,0.2849,0.2849,0.2849,0.2849,0.2838,0.2787,0.278,0.268,0.2664,0.2576,0.2559,0.254,0.2587,0.2598,0.2628,0.2729,0.2885,0.2907,0.279,0.2717,0.2492,0.236,0.2347,0.2667,0.2695,0.2722,0.266,0.2448,0.2448,0.1822,0.1817,0.1813]},{"header":{"parameterUnit":"m.s-1","parameterCategory":2,"la1":30.2991,"la2":30.254,"lo1":-89.0895,"lo2":-89.0444,"dy":0.0017,"dx":0.0017,"nx":28,"ny":28,"refTime":"2025-02-24T03:00:00:Z","depth":"0","parameterNumber":3,"parameterNumberName":"V-component_of_CURRENTS"},"data":[0,0,0,0,0,0,0,0,0,0,0,0,0,0,0,0,0,0,0,0,0,0,0,0,0,0,0,0,0,0,0,0,0,0,0,0,0,0,0,0,0,0,0,0,0,0,0,0,0,0,0,0,0,0,0,0,0,0,0.0067,0.0067,0,0.0052,0.0052,0.0052,0.0036,0.0036,0.0036,0.0036,-0.0011,-0.0013,-0.0014,0,0,0,0,0,0,0,0,0,0,0,0,0,0.0033,0.0034,0.0067,0.0067,0.0067,0.0052,0.0052,0.0052,0.0036,0.0036,0.0036,0.0036,-0.0011,-0.0012,-0.0014,0,0,0,0,0,0,0,0,0,0,0,0,0,0.0034,0.0034,0.0067,0.0059,0.0058,0.0053,0.0052,0.0052,0.0036,0.0036,0.0036,0.0036,-0.001,-0.0012,-0.0014,-0.0025,0,0,-0.002,-0.0021,0,0,0,0,0,0,0,0,0.0034,0.0035,0.006,0.006,0.0059,0.0048,0.0023,0.0025,0.0036,0.0042,0.0036,0.0036,0.0007,0.0004,-0.0002,-0.0028,-0.003,-0.002,-0.0021,-0.0022,-0.0023,0,0,0,0,0,0,0,0.0034,0.0036,0.0059,0.006,0.0059,0.004,0.0041,0.0023,0.0023,0.0042,0.0041,0.0043,0.0006,0.0,-0.0003,-0.003,-0.002,-0.0022,-0.0023,-0.0024,-0.0066,-0.0066,0,0,0,0,0,0,0.0043,0.0036,0.0059,0.0059,0.0049,0.0041,0.0041,0.005,0.0023,0.002,0.0043,0.0043,0.0003,-0.0001,-0.0005,-0.0003,-0.0022,-0.0024,-0.0025,-0.0066,-0.0066,-0.0066,0,0,0,0,0,0,0.0043,0.0046,0.006,0.0048,0.0049,0.0043,0.0051,0.005,0.0047,0.0025,0.0021,0.0044,0.0003,-0.0002,-0.0014,-0.0006,-0.0025,-0.0026,-0.0066,-0.0066,-0.0066,-0.0011,0,0,0,0,0,0,0.0042,0.0046,0.0051,0.0049,0.005,0.0064,0.0052,0.0049,0.0049,0.0048,0.0024,0.0019,0.0003,-0.0011,-0.0016,-0.0009,-0.0028,-0.0066,-0.0066,-0.0066,-0.0013,-0.0009,-0.0006,0,0,0,0,0,0.0041,0.0052,0.0052,0.0054,0.0059,0.0065,0.0064,0.0057,0.0049,0.0053,0.0036,0.002,-0.0015,-0.0013,-0.0018,-0.0011,-0.0066,-0.0066,-0.0066,-0.0014,-0.001,-0.0006,0,0,0,0,0,0,0.0036,0.0052,0.0051,0.0065,0.0068,0.0064,0.0066,0.006,0.0049,0.0045,0.0022,0.0017,0.0008,-0.0012,-0.0009,-0.0025,-0.0044,-0.0045,-0.0003,0.0001,0.0004,0.0027,-0.0029,0,0,0,0,0,0.004,0.0054,0.0061,0.0071,0.0076,0.0071,0.0071,0.0067,0.0059,0.0055,0.0039,0.0018,0.0003,-0.0005,-0.0023,-0.0031,-0.0051,-0.0032,-0.0029,-0.0026,-0.0013,-0.0035,-0.0032,-0.0066,-0.0066,-0.0066,0,0,0.004,0.0051,0.0057,0.0072,0.0073,0.0089,0.007,0.0076,0.0088,0.005,0.0055,0.0029,0.0003,-0.0004,-0.001,-0.0018,-0.0029,-0.0026,-0.0023,-0.0011,-0.0035,-0.0031,-0.0028,-0.0066,-0.0066,-0.0066,0,0,0.0056,0.0059,0.0081,0.0089,0.01,0.0098,0.0103,0.0101,0.01,0.0098,0.0076,0.0059,0.0033,0.0021,0.001,0.002,-0.001,0.0008,0.0046,0.0024,0.0027,0.0029,0.0002,0.0002,0.0011,0.0011,0.0011,0,0.0054,0.0089,0.0086,0.0111,0.0125,0.0107,0.0135,0.013,0.0123,0.013,0.0106,0.0075,0.0047,0.0049,0.005,0.003,0.001,0.0035,0.003,0.0032,0.0034,0.0005,0.0004,0.0013,0.0013,0.0013,0.0012,0,0.0097,0.012,0.0133,0.0164,0.0172,0.0191,0.0192,0.0195,0.0184,0.018,0.0174,0.0132,0.0118,0.0099,0.0077,0.0078,0.0056,0.0038,0.0025,0.0041,0.0009,0.0007,0.0017,0.0016,0.0015,0.0015,0,0,0.0112,0.0156,0.0162,0.0193,0.0206,0.0224,0.0239,0.026,0.0287,0.025,0.0276,0.0228,0.0203,0.0188,0.0152,0.0128,0.0111,0.0092,0.0089,0.0074,0.006,0.0062,0.0059,0.0092,0.0092,0.0092,0.0031,0,0.0151,0.0215,0.0221,0.0277,0.0314,0.0306,0.0329,0.0338,0.0337,0.0353,0.0302,0.0302,0.0238,0.0231,0.0197,0.0144,0.011,0.013,0.0039,0.0036,0.0044,0.0059,0.0094,0.0045,0.0029,0.0029,0.0028,0,0.0203,0.0241,0.0304,0.0359,0.0373,0.0395,0.0442,0.0464,0.047,0.0468,0.0449,0.0407,0.037,0.0307,0.0216,0.0233,0.015,0.0095,0.009,0.0077,0.0035,0.0026,0.0041,-0.0067,0.0025,0.0025,0.0025,0,0.0243,0.0304,0.0361,0.0378,0.0426,0.0452,0.0476,0.0499,0.0545,0.0545,0.0565,0.0504,0.0488,0.0379,0.0256,0.0236,0.0154,0.0109,0.0028,0.0026,0.0031,0.0031,-0.0056,0.0033,0.0033,0.0034,0.0034,0,0.0299,0.0345,0.0386,0.042,0.0494,0.0504,0.0583,0.0601,0.0642,0.0706,0.0629,0.0664,0.0505,0.0435,0.0297,0.0172,0.0181,0.0044,0.0017,0.005,0.0052,-0.0062,-0.0149,0.0031,0.0032,0.0032,0.0033,0,0.0343,0.0367,0.044,0.0496,0.0519,0.0576,0.0663,0.0727,0.0744,0.0825,0.0825,0.0794,0.0711,0.0541,0.0384,0.0247,0.0043,0.0054,0.0102,0.0083,-0.0096,-0.0181,-0.031,-0.0368,-0.0045,-0.0045,-0.0045,0,0.0375,0.0416,0.0498,0.0551,0.058,0.0663,0.0727,0.0778,0.0858,0.0917,0.0969,0.0911,0.0909,0.0681,0.0435,0.02,0.0052,0.0052,0.0015,-0.0089,-0.0205,-0.0262,-0.0307,0.0032,0.0033,0.0033,0.0034,0,0.0437,0.0459,0.0519,0.0625,0.0702,0.0802,0.0899,0.0979,0.1044,0.1123,0.1221,0.1224,0.1009,0.0827,0.0492,0.0309,-0.0018,0.0053,-0.0065,-0.0154,-0.0212,-0.0285,0.0045,0.0037,0.0037,0.0037,0.0036,0.0036,0.048,0.0532,0.0607,0.0712,0.0806,0.0929,0.1026,0.1147,0.1293,0.1426,0.1421,0.1479,0.1175,0.0753,0.0483,0.0035,0.0001,-0.0097,-0.0194,-0.0243,-0.029,0.0051,0.0021,0.002,0.002,0.002,0.0019,0,0.0538,0.0597,0.0692,0.0816,0.0929,0.0968,0.1135,0.1248,0.1437,0.1579,0.168,0.1601,0.1224,0.079,0.0185,-0.0137,-0.0271,-0.0318,-0.0395,-0.0433,-0.0129,-0.0113,-0.0158,-0.0158,-0.0158,-0.0157,-0.0157,-0.0157,0.057,0.0663,0.071,0.0895,0.0989,0.1146,0.1248,0.1423,0.1569,0.178,0.1861,0.1886,0.1568,0.051,-0.0196,-0.0374,-0.0603,-0.0652,-0.0778,-0.0571,-0.0558,-0.0545,-0.0547,-0.0683,-0.0684,-0.1011,-0.1014,-0.1017]}],[{"header":{"parameterUnit":"m.s-1","parameterCategory":2,"la1":30.2991,"la2":30.254,"lo1":-89.0895,"lo2":-89.0444,"dy":0.0017,"dx":0.0017,"nx":28,"ny":28,"refTime":"2025-02-24T03:00:00:Z","depth":"2","parameterNumber":2,"parameterNumberName":"U-component_of_CURRENTS"},"data":[0,0,0,0,0,0,0,0,0,0,0,0,0,0,0,0,0,0,0,0,0,0,0,0,0,0,0,0,0,0,0,0,0,0,0,0,0,0,0,0,0,0,0,0,0,0,0,0,0,0,0,0,0,0,0,0,0,0,0.2571,0.2571,0,0.258,0.258,0.258,0.2564,0.2564,0.2563,0.2563,0.2551,0.255,0.255,0,0,0,0,0,0,0,0,0,0,0,0,0,0.2552,0.2552,0.2571,0.2571,0.2572,0.258,0.258,0.258,0.2564,0.2564,0.2563,0.2563,0.2551,0.255,0.255,0,0,0,0,0,0,0,0,0,0,0,0,0,0.2558,0.2552,0.2571,0.2567,0.2567,0.258,0.258,0.258,0.2564,0.2564,0.2563,0.2563,0.2551,0.255,0.255,0.2558,0,0,0.255,0.255,0,0,0,0,0,0,0,0,0.2558,0.2558,0.2567,0.2567,0.2567,0.2573,0.2569,0.2573,0.2564,0.2562,0.2563,0.2563,0.2558,0.2558,0.2556,0.2558,0.2557,0.255,0.255,0.255,0.255,0,0,0,0,0,0,0,0.2557,0.2558,0.2572,0.2568,0.2568,0.2569,0.2569,0.257,0.256,0.2562,0.2562,0.2568,0.2558,0.2557,0.2556,0.2557,0.255,0.255,0.255,0.255,0.2607,0.2609,0,0,0,0,0,0,0.2562,0.2557,0.2571,0.2572,0.2564,0.257,0.257,0.2569,0.256,0.2559,0.2568,0.2567,0.2557,0.2556,0.2555,0.2597,0.255,0.255,0.255,0.2605,0.2607,0.2609,0,0,0,0,0,0,0.2561,0.2563,0.2571,0.2568,0.2569,0.2571,0.257,0.257,0.2579,0.2565,0.2563,0.2579,0.2557,0.2556,0.2571,0.2595,0.255,0.255,0.2604,0.2606,0.2608,0.266,0,0,0,0,0,0,0.256,0.2562,0.2569,0.2568,0.257,0.2588,0.2571,0.257,0.2584,0.2583,0.2574,0.2572,0.2556,0.2572,0.2571,0.2594,0.255,0.2602,0.2605,0.2607,0.2656,0.2664,0.267,0,0,0,0,0,0.256,0.2568,0.2568,0.2571,0.2576,0.2589,0.259,0.2588,0.2585,0.2594,0.2593,0.2573,0.259,0.2573,0.2572,0.2596,0.26,0.2604,0.2607,0.2653,0.2662,0.267,0,0,0,0,0,0,0.2562,0.2567,0.2568,0.2577,0.2588,0.2588,0.26,0.2599,0.2605,0.2607,0.259,0.2588,0.2613,0.2601,0.2583,0.2623,0.2594,0.2597,0.2629,0.2637,0.2644,0.2657,0.255,0,0,0,0,0,0.2567,0.2575,0.2582,0.2592,0.26,0.2604,0.2611,0.2612,0.2616,0.2618,0.2614,0.2616,0.2627,0.2629,0.2634,0.2652,0.2654,0.2669,0.2676,0.2682,0.2694,0.2723,0.2733,0.2621,0.2621,0.2621,0,0,0.2571,0.2577,0.2581,0.2594,0.2603,0.2619,0.2607,0.2625,0.2642,0.2617,0.264,0.2642,0.2639,0.2663,0.2673,0.2654,0.2716,0.2687,0.2692,0.2701,0.2728,0.2739,0.2748,0.2623,0.2623,0.2622,0,0,0.2583,0.2591,0.2602,0.2615,0.2635,0.264,0.265,0.266,0.2669,0.2692,0.2685,0.2705,0.271,0.2718,0.2721,0.2773,0.2756,0.2773,0.2813,0.2841,0.2851,0.2859,0.2874,0.2884,0.2772,0.2772,0.2772,0,0.259,0.2599,0.2609,0.2627,0.264,0.2653,0.267,0.2688,0.2702,0.2716,0.2708,0.2742,0.274,0.2776,0.2796,0.2789,0.2797,0.2778,0.285,0.2858,0.2866,0.288,0.2889,0.2775,0.2775,0.2775,0.2774,0,0.2606,0.2619,0.2631,0.2655,0.2675,0.2693,0.2718,0.2742,0.2757,0.2769,0.2811,0.2815,0.2834,0.2841,0.2834,0.289,0.2876,0.2858,0.2826,0.288,0.2891,0.29,0.2779,0.2778,0.2777,0.2777,0,0,0.2595,0.2633,0.2636,0.2646,0.2689,0.2699,0.2749,0.2784,0.2816,0.284,0.2878,0.2909,0.2915,0.2921,0.2919,0.2946,0.3007,0.293,0.293,0.2941,0.3066,0.3013,0.3017,0.3001,0.3003,0.3004,0.3051,0,0.2602,0.2628,0.2652,0.268,0.2693,0.273,0.277,0.281,0.2849,0.2893,0.292,0.2957,0.2944,0.2961,0.2989,0.3009,0.3034,0.2996,0.3016,0.3017,0.296,0.3027,0.2782,0.28,0.306,0.3061,0.3062,0,0.26,0.2618,0.2643,0.2681,0.2691,0.2719,0.2781,0.2821,0.2899,0.2933,0.2984,0.3005,0.3065,0.304,0.3103,0.308,0.3083,0.309,0.3091,0.3032,0.2981,0.2789,0.2806,0.3077,0.3076,0.3075,0.3074,0,0.2563,0.2605,0.262,0.2634,0.2688,0.2714,0.2753,0.2831,0.2877,0.2969,0.3009,0.3072,0.3112,0.3139,0.3163,0.314,0.3223,0.3184,0.3137,0.3132,0.2923,0.2897,0.3226,0.3226,0.3226,0.3226,0.3226,0,0.2543,0.2551,0.2604,0.2608,0.2638,0.2691,0.2743,0.2801,0.2895,0.2945,0.3025,0.3074,0.3142,0.3191,0.3194,0.3204,0.3248,0.3164,0.3151,0.2934,0.291,0.3145,0.3135,0.3228,0.3227,0.3227,0.3227,0,0.2488,0.2524,0.254,0.2597,0.2618,0.264,0.2732,0.2768,0.2873,0.2947,0.298,0.31,0.317,0.3219,0.3275,0.3241,0.3255,0.3239,0.2982,0.2938,0.3134,0.3126,0.3192,0.3191,0.319,0.3189,0.3188,0,0.2458,0.2462,0.2517,0.2527,0.2553,0.2602,0.2633,0.2745,0.2792,0.2945,0.2967,0.3086,0.3139,0.3219,0.3193,0.3198,0.325,0.296,0.2873,0.3155,0.3135,0.3129,0.3123,0.2611,0.2606,0.2601,0.2598,0,0.2399,0.2424,0.2439,0.2464,0.2492,0.2521,0.2581,0.2615,0.2739,0.2807,0.2897,0.2964,0.306,0.297,0.3,0.2962,0.2943,0.2871,0.3236,0.2667,0.2614,0.2592,0.2604,0.2558,0.2562,0.2565,0.2567,0.2569,0.2354,0.2349,0.2373,0.2384,0.241,0.2414,0.2407,0.2474,0.2527,0.2592,0.2734,0.2744,0.2792,0.2717,0.2635,0.2565,0.2764,0.2621,0.2632,0.2648,0.2581,0.253,0.2446,0.2449,0.2452,0.2454,0.2456,0,0.2279,0.228,0.2287,0.2284,0.2262,0.232,0.234,0.2306,0.2306,0.2401,0.246,0.2286,0.2248,0.2286,0.2124,0.2129,0.2077,0.2034,0.1936,0.1979,0.2016,0.1914,0.1603,0.16,0.1597,0.1595,0,0,0.224,0.2205,0.2199,0.213,0.2131,0.2061,0.2048,0.2022,0.2046,0.2014,0.2,0.2172,0.2243,0.1897,0.1856,0.17,0.1821,0.1633,0.2325,0.2255,0.2288,0.2373,0.2267,0,0,0,0,0]},{"header":{"parameterUnit":"m.s-1","parameterCategory":2,"la1":30.2991,"la2":30.254,"lo1":-89.0895,"lo2":-89.0444,"dy":0.0017,"dx":0.0017,"nx":28,"ny":28,"refTime":"2025-02-24T03:00:00:Z","depth":"2","parameterNumber":3,"parameterNumberName":"V-component_of_CURRENTS"},"data":[0,0,0,0,0,0,0,0,0,0,0,0,0,0,0,0,0,0,0,0,0,0,0,0,0,0,0,0,0,0,0,0,0,0,0,0,0,0,0,0,0,0,0,0,0,0,0,0,0,0,0,0,0,0,0,0,0,0,0.0264,0.0264,0,0.0246,0.0245,0.0245,0.0223,0.0223,0.0223,0.0222,0.018,0.0179,0.0179,0,0,0,0,0,0,0,0,0,0,0,0,0,0.0228,0.0229,0.0264,0.0264,0.0264,0.0246,0.0245,0.0245,0.0223,0.0223,0.0223,0.0222,0.0181,0.018,0.0178,0,0,0,0,0,0,0,0,0,0,0,0,0,0.0229,0.0229,0.0264,0.0252,0.0251,0.0246,0.0245,0.0245,0.0223,0.0223,0.0222,0.0222,0.0181,0.018,0.0178,0.0177,0,0,0.0174,0.0174,0,0,0,0,0,0,0,0,0.0229,0.023,0.0254,0.0253,0.0251,0.0237,0.0217,0.0221,0.0223,0.0232,0.0222,0.0222,0.0198,0.0195,0.0191,0.0175,0.0173,0.0174,0.0173,0.0173,0.0172,0,0,0,0,0,0,0,0.0229,0.0231,0.0256,0.0254,0.0252,0.0229,0.0229,0.0218,0.0216,0.0231,0.023,0.023,0.0197,0.0193,0.019,0.0172,0.0174,0.0173,0.0172,0.0171,0.0145,0.0145,0,0,0,0,0,0,0.0237,0.0231,0.0256,0.0255,0.024,0.023,0.023,0.0241,0.0217,0.0213,0.023,0.0229,0.0195,0.0192,0.0189,0.0193,0.0173,0.0171,0.0171,0.0145,0.0145,0.0145,0,0,0,0,0,0,0.0237,0.024,0.0257,0.0243,0.0243,0.0232,0.0244,0.0241,0.0237,0.0216,0.0212,0.0229,0.0195,0.019,0.0182,0.019,0.0171,0.0169,0.0144,0.0145,0.0145,0.0196,0,0,0,0,0,0,0.0236,0.024,0.0249,0.0244,0.0245,0.0262,0.0244,0.0241,0.0238,0.0236,0.0214,0.021,0.0194,0.0185,0.0181,0.0188,0.0168,0.0144,0.0145,0.0145,0.0194,0.0198,0.0201,0,0,0,0,0,0.0235,0.0254,0.025,0.0252,0.0258,0.0263,0.0261,0.0249,0.0238,0.0243,0.0226,0.021,0.0183,0.0184,0.018,0.0187,0.0144,0.0144,0.0145,0.0193,0.0197,0.0201,0,0,0,0,0,0,0.0241,0.0253,0.0249,0.027,0.0268,0.0259,0.0263,0.0252,0.0242,0.0238,0.0215,0.021,0.0205,0.0187,0.0189,0.0178,0.016,0.0159,0.0197,0.0201,0.0205,0.0221,0.0167,0,0,0,0,0,0.0248,0.0266,0.0266,0.0282,0.0284,0.0272,0.0271,0.0263,0.0254,0.0249,0.0234,0.0215,0.0203,0.0196,0.0182,0.0179,0.0155,0.0178,0.0181,0.0185,0.0193,0.0163,0.0165,0.0146,0.0146,0.0146,0,0,0.0254,0.0262,0.0272,0.0284,0.0281,0.0293,0.0271,0.0274,0.0283,0.0246,0.0251,0.0228,0.0204,0.0201,0.0197,0.0188,0.0177,0.0185,0.0188,0.0195,0.0164,0.0166,0.0168,0.0146,0.0146,0.0146,0,0,0.0279,0.0284,0.0307,0.0311,0.0313,0.0307,0.031,0.0303,0.03,0.0298,0.0274,0.0258,0.0239,0.0226,0.0216,0.0229,0.0196,0.022,0.0252,0.0223,0.0224,0.0225,0.0196,0.0194,0.0222,0.0222,0.0222,0,0.0284,0.0318,0.0312,0.0334,0.0343,0.0317,0.0341,0.0334,0.0324,0.0326,0.0306,0.0275,0.0253,0.0251,0.0254,0.0238,0.0215,0.0241,0.0228,0.0229,0.0229,0.0198,0.0196,0.0224,0.0224,0.0224,0.0224,0,0.033,0.0352,0.0365,0.0387,0.0393,0.0408,0.0401,0.0402,0.0387,0.0377,0.0368,0.0331,0.0315,0.0299,0.0282,0.0275,0.0255,0.0237,0.0221,0.0234,0.0201,0.0197,0.0228,0.0227,0.0226,0.0226,0,0,0.0357,0.0392,0.0396,0.042,0.0424,0.0438,0.045,0.046,0.0477,0.0442,0.0455,0.0417,0.0389,0.0375,0.0342,0.0313,0.029,0.0281,0.0278,0.0258,0.0224,0.021,0.0204,0.0269,0.0268,0.0268,0.0199,0,0.0395,0.0451,0.0454,0.05,0.0529,0.0516,0.0533,0.0534,0.0525,0.0528,0.0477,0.0471,0.042,0.0413,0.0375,0.0318,0.0283,0.0311,0.0209,0.0206,0.0197,0.02,0.0215,0.0155,0.0195,0.0195,0.0194,0,0.0442,0.0475,0.053,0.0571,0.0583,0.0599,0.0629,0.0645,0.0635,0.0627,0.06,0.0558,0.0516,0.0466,0.0366,0.0386,0.0312,0.0256,0.0252,0.022,0.0185,0.0148,0.0146,0.0187,0.0188,0.0188,0.0189,0,0.0477,0.053,0.0578,0.0592,0.0628,0.0649,0.0667,0.0674,0.0707,0.0693,0.0701,0.0633,0.0609,0.0506,0.0386,0.0377,0.0269,0.0241,0.0154,0.0152,0.0137,0.0134,0.0166,0.0166,0.0166,0.0166,0.0166,0,0.0524,0.0563,0.06,0.0628,0.0689,0.0696,0.0757,0.0765,0.0787,0.0829,0.0757,0.0768,0.0619,0.0536,0.0412,0.0277,0.0286,0.0163,0.0135,0.0154,0.0154,0.016,0.0161,0.0163,0.0164,0.0164,0.0165,0,0.0559,0.058,0.0643,0.069,0.071,0.0756,0.0827,0.0876,0.088,0.0931,0.093,0.0875,0.0772,0.061,0.0447,0.0326,0.0187,0.0133,0.0165,0.0142,0.0081,0.0084,0.0032,0.0031,0.003,0.0029,0.0028,0,0.0584,0.0619,0.0691,0.0735,0.076,0.0829,0.0883,0.0921,0.0981,0.1003,0.1035,0.0953,0.0916,0.0669,0.044,0.0217,0.0186,0.0077,0.0061,0.009,0.0068,0.0073,0.0078,0.0055,0.0055,0.0055,0.0054,0,0.0631,0.0652,0.0703,0.0793,0.0859,0.0945,0.1024,0.1086,0.113,0.1173,0.1213,0.1183,0.095,0.0739,0.0427,0.0271,0.0113,0.0064,0.0085,0.0092,0.0108,0.0088,0.0092,0.0052,0.0052,0.0052,0.0052,0.0052,0.0662,0.0705,0.077,0.0857,0.0938,0.1044,0.1123,0.1211,0.1312,0.1374,0.1345,0.1301,0.105,0.0664,0.0392,0.0097,0.0114,0.0004,0.0007,0.0009,0.003,0.0044,-0.0021,-0.0021,-0.0021,-0.0021,-0.0021,0,0.0701,0.075,0.0831,0.0935,0.1029,0.1069,0.1206,0.1287,0.1408,0.1456,0.1486,0.1245,0.1003,0.0704,0.0276,0.0027,0.0003,-0.0063,-0.0033,-0.0028,-0.0024,-0.0005,-0.0066,-0.0067,-0.0067,-0.0068,0,0,0.0722,0.0796,0.0836,0.0986,0.1067,0.1198,0.128,0.1398,0.1468,0.1524,0.1498,0.1447,0.1091,0.0777,0.0433,0.0184,0.0132,0.0127,0.0189,0.0271,0.0277,0.004,0.0079,0,0,0,0,0]}],[{"header":{"parameterUnit":"m.s-1","parameterCategory":2,"la1":30.2991,"la2":30.254,"lo1":-89.0895,"lo2":-89.0444,"dy":0.0017,"dx":0.0017,"nx":28,"ny":28,"refTime":"2025-02-24T03:00:00:Z","depth":"4","parameterNumber":2,"parameterNumberName":"U-component_of_CURRENTS"},"data":[0,0,0,0,0,0,0,0,0,0,0,0,0,0,0,0,0,0,0,0,0,0,0,0,0,0,0,0,0,0,0,0,0,0,0,0,0,0,0,0,0,0,0,0,0,0,0,0,0,0,0,0,0,0,0,0,0,0,0.1653,0.1654,0,0.1706,0.1706,0.1707,0.1751,0.1752,0.1753,0.1753,0.1818,0.1819,0.182,0,0,0,0,0,0,0,0,0,0,0,0,0,0.1593,0.1593,0.1653,0.1654,0.1655,0.1706,0.1706,0.1707,0.1751,0.1752,0.1753,0.1753,0.1818,0.1819,0.182,0,0,0,0,0,0,0,0,0,0,0,0,0,0.1627,0.1593,0.1653,0.1685,0.1688,0.1706,0.1706,0.1707,0.1751,0.1752,0.1753,0.1754,0.1817,0.1819,0.182,0.181,0,0,0.1825,0.1826,0,0,0,0,0,0,0,0,0.1625,0.1629,0.1679,0.1682,0.1686,0.1725,0.1709,0.1743,0.1751,0.1725,0.1753,0.1754,0.1789,0.1793,0.1797,0.1813,0.1816,0.1826,0.1827,0.1827,0.1828,0,0,0,0,0,0,0,0.1623,0.1627,0.1672,0.168,0.1684,0.1697,0.1703,0.1715,0.1749,0.1727,0.1731,0.174,0.1791,0.1795,0.1799,0.1817,0.1826,0.1827,0.1828,0.1829,0.1936,0.1938,0,0,0,0,0,0,0.1619,0.1625,0.167,0.1674,0.166,0.1697,0.1704,0.171,0.1749,0.1756,0.1739,0.1742,0.1792,0.1797,0.1802,0.1886,0.1827,0.1829,0.183,0.1934,0.1936,0.1938,0,0,0,0,0,0,0.1618,0.1623,0.1668,0.1652,0.1659,0.1698,0.1704,0.171,0.1751,0.1758,0.1765,0.1778,0.1793,0.1799,0.1848,0.1886,0.183,0.1831,0.1932,0.1935,0.1937,0.1995,0,0,0,0,0,0,0.1616,0.1622,0.1643,0.1652,0.166,0.17,0.1703,0.1711,0.1754,0.1759,0.1793,0.1798,0.1794,0.1845,0.1849,0.1887,0.1832,0.1929,0.1933,0.1936,0.1991,0.2,0.2007,0,0,0,0,0,0.1613,0.1629,0.1643,0.165,0.1682,0.1702,0.1707,0.1736,0.1755,0.1776,0.1806,0.1799,0.1871,0.1848,0.1852,0.1891,0.1928,0.1932,0.1936,0.1987,0.1998,0.2007,0,0,0,0,0,0,0.1615,0.1636,0.1651,0.1675,0.1699,0.1711,0.1739,0.1756,0.1795,0.1813,0.1819,0.1826,0.1883,0.188,0.1856,0.1934,0.19,0.1905,0.1937,0.1947,0.1955,0.1961,0.1834,0,0,0,0,0,0.1624,0.1646,0.1664,0.1689,0.1704,0.173,0.175,0.1769,0.1796,0.1816,0.184,0.1869,0.1897,0.1918,0.1938,0.1978,0.1977,0.2008,0.2016,0.2022,0.2032,0.2064,0.2075,0.1952,0.1952,0.1952,0,0,0.1632,0.1649,0.1663,0.1692,0.1716,0.1742,0.1745,0.1785,0.1818,0.1815,0.1881,0.1901,0.1915,0.1962,0.1988,0.1969,0.2058,0.2028,0.2033,0.2039,0.2069,0.2081,0.2091,0.1955,0.1954,0.1954,0,0,0.1647,0.1676,0.1697,0.1721,0.1763,0.1777,0.1797,0.1831,0.1863,0.1916,0.1928,0.1974,0.2014,0.2033,0.2045,0.211,0.21,0.2123,0.2169,0.22,0.221,0.2219,0.2231,0.2241,0.2127,0.2127,0.2127,0,0.1662,0.1685,0.1709,0.1735,0.1761,0.1797,0.1826,0.1859,0.1909,0.1939,0.1949,0.203,0.2046,0.21,0.2129,0.2129,0.2139,0.2128,0.221,0.2219,0.2227,0.2237,0.2246,0.213,0.213,0.2129,0.2129,0,0.1679,0.1715,0.1732,0.1776,0.1808,0.1842,0.1884,0.1932,0.1978,0.2006,0.2084,0.211,0.2157,0.2173,0.2174,0.2245,0.2231,0.2215,0.2181,0.2243,0.2249,0.2258,0.2135,0.2134,0.2133,0.2132,0,0,0.1664,0.1731,0.1742,0.1769,0.1835,0.1855,0.1926,0.1983,0.2035,0.2094,0.2157,0.2216,0.224,0.2257,0.227,0.2303,0.2371,0.2294,0.2294,0.2299,0.2436,0.2279,0.2273,0.2374,0.2376,0.2377,0.2416,0,0.1675,0.1723,0.1759,0.1817,0.1844,0.1904,0.196,0.2023,0.2086,0.2157,0.2205,0.2271,0.2269,0.2308,0.2342,0.2371,0.2399,0.2361,0.2382,0.2383,0.223,0.228,0.2384,0.2423,0.2425,0.2426,0.2428,0,0.1672,0.1707,0.1762,0.1835,0.1855,0.1903,0.2,0.2057,0.2159,0.2212,0.2287,0.2327,0.2405,0.2389,0.2463,0.2443,0.2451,0.246,0.2461,0.23,0.2242,0.2351,0.2443,0.2442,0.2441,0.244,0.2439,0,0.1629,0.1705,0.1751,0.1776,0.1866,0.1917,0.1978,0.2081,0.2141,0.2263,0.2317,0.24,0.2459,0.2492,0.2522,0.2507,0.2584,0.2555,0.2415,0.2404,0.2507,0.2497,0.2599,0.2599,0.2599,0.2599,0.2599,0,0.1603,0.1642,0.1742,0.1763,0.183,0.1906,0.1994,0.2069,0.2184,0.2245,0.2348,0.2398,0.2493,0.2542,0.255,0.2507,0.2606,0.243,0.2406,0.253,0.2523,0.2513,0.2502,0.26,0.26,0.26,0.26,0,0.1541,0.1608,0.1663,0.177,0.1812,0.1864,0.1998,0.2049,0.2175,0.2262,0.2307,0.2428,0.2485,0.2545,0.2603,0.2525,0.2513,0.2471,0.2606,0.2589,0.2303,0.2296,0.2309,0.2304,0.2299,0.2296,0.2293,0,0.1507,0.1533,0.1657,0.1694,0.1751,0.1844,0.19,0.2036,0.2087,0.2249,0.2267,0.2383,0.244,0.2391,0.247,0.2464,0.2434,0.2404,0.2345,0.2299,0.2276,0.2275,0.2274,0.2286,0.2285,0.2283,0.2282,0,0.1443,0.1506,0.1553,0.1632,0.1701,0.176,0.1853,0.1877,0.2017,0.2149,0.2173,0.22,0.2254,0.2286,0.2303,0.2295,0.2411,0.2358,0.2366,0.231,0.2271,0.2252,0.2256,0.2267,0.2269,0.2271,0.2272,0,0.1403,0.1419,0.1494,0.1547,0.1625,0.1645,0.1709,0.1755,0.1822,0.199,0.1994,0.2109,0.2229,0.2198,0.2214,0.2197,0.2155,0.2069,0.2092,0.2109,0.2025,0.1945,0.1826,0,0,0,0,0,0.135,0.1353,0.1397,0.1441,0.1509,0.1556,0.1655,0.1719,0.1852,0.1815,0.1899,0.1936,0.1957,0.2022,0.1961,0.2128,0.2168,0.2048,0.2083,0.2183,0.2201,0.212,0,0,0,0,0,0,0.1312,0.1352,0.1359,0.1338,0.1348,0.1405,0.1464,0.1556,0.1542,0.1685,0.1708,0.1815,0.187,0.1973,0.1925,0.1943,0.1922,0.2126,0.2121,0.2173,0.2189,0.2203,0.2126,0,0,0,0,0]},{"header":{"parameterUnit":"m.s-1","parameterCategory":2,"la1":30.2991,"la2":30.254,"lo1":-89.0895,"lo2":-89.0444,"dy":0.0017,"dx":0.0017,"nx":28,"ny":28,"refTime":"2025-02-24T03:00:00:Z","depth":"4","parameterNumber":3,"parameterNumberName":"V-component_of_CURRENTS"},"data":[0,0,0,0,0,0,0,0,0,0,0,0,0,0,0,0,0,0,0,0,0,0,0,0,0,0,0,0,0,0,0,0,0,0,0,0,0,0,0,0,0,0,0,0,0,0,0,0,0,0,0,0,0,0,0,0,0,0,0.0231,0.0231,0,0.0223,0.0223,0.0223,0.0211,0.0211,0.0211,0.021,0.0186,0.0186,0.0185,0,0,0,0,0,0,0,0,0,0,0,0,0,0.02,0.0201,0.0231,0.0231,0.0231,0.0223,0.0223,0.0223,0.0211,0.0211,0.0211,0.021,0.0187,0.0186,0.0185,0,0,0,0,0,0,0,0,0,0,0,0,0,0.0204,0.0201,0.0231,0.0225,0.0224,0.0223,0.0223,0.0223,0.0211,0.0211,0.0211,0.021,0.0187,0.0186,0.0185,0.0185,0,0,0.0183,0.0183,0,0,0,0,0,0,0,0,0.0204,0.0205,0.0226,0.0225,0.0225,0.0218,0.0203,0.021,0.0211,0.0215,0.021,0.021,0.0196,0.0195,0.0193,0.0184,0.0183,0.0183,0.0182,0.0182,0.0182,0,0,0,0,0,0,0,0.0204,0.0205,0.0227,0.0226,0.0225,0.021,0.021,0.0204,0.0206,0.0215,0.0214,0.0214,0.0196,0.0194,0.0192,0.0182,0.0183,0.0182,0.0182,0.0181,0.0171,0.0171,0,0,0,0,0,0,0.0209,0.0206,0.0228,0.0227,0.0214,0.0211,0.0211,0.022,0.0207,0.0205,0.0215,0.0214,0.0195,0.0193,0.0191,0.0201,0.0182,0.0181,0.0181,0.0171,0.0171,0.0171,0,0,0,0,0,0,0.0208,0.0211,0.0228,0.0216,0.0217,0.0212,0.0221,0.022,0.0221,0.0207,0.0204,0.0217,0.0195,0.0192,0.0191,0.02,0.0181,0.018,0.0171,0.0171,0.0171,0.0214,0,0,0,0,0,0,0.0207,0.0211,0.022,0.0217,0.0218,0.0235,0.0222,0.022,0.0221,0.022,0.0208,0.0206,0.0194,0.0192,0.019,0.0198,0.018,0.017,0.0171,0.0171,0.0213,0.0216,0.0219,0,0,0,0,0,0.0206,0.0223,0.0221,0.0224,0.0231,0.0235,0.0235,0.0229,0.0222,0.0228,0.0218,0.0206,0.0192,0.0192,0.0189,0.0198,0.017,0.0171,0.0171,0.0211,0.0215,0.0219,0,0,0,0,0,0,0.0215,0.0224,0.0221,0.024,0.024,0.0234,0.024,0.0233,0.0229,0.0228,0.0211,0.0208,0.021,0.0197,0.0196,0.0194,0.0178,0.0178,0.021,0.0213,0.0216,0.0227,0.0179,0,0,0,0,0,0.0221,0.0236,0.0237,0.0251,0.0253,0.0246,0.0247,0.0243,0.0238,0.0236,0.0228,0.0216,0.0209,0.0206,0.0197,0.0199,0.0177,0.0201,0.0204,0.0207,0.0213,0.0184,0.0185,0.0172,0.0172,0.0172,0,0,0.0228,0.0235,0.0243,0.0254,0.0253,0.0264,0.0246,0.0252,0.0261,0.0234,0.0244,0.0228,0.0211,0.0213,0.0212,0.0204,0.0198,0.0207,0.021,0.0215,0.0185,0.0186,0.0187,0.0173,0.0173,0.0173,0,0,0.025,0.0256,0.0275,0.0279,0.0283,0.0278,0.0282,0.0279,0.028,0.0284,0.0266,0.0256,0.0248,0.0237,0.023,0.0244,0.0215,0.024,0.0266,0.0238,0.0239,0.0239,0.021,0.0208,0.0241,0.0241,0.0241,0,0.0257,0.0283,0.028,0.0297,0.0306,0.0288,0.0308,0.0305,0.0302,0.0306,0.0293,0.0275,0.026,0.0259,0.0264,0.0253,0.023,0.0255,0.0242,0.0242,0.0242,0.0212,0.0209,0.0243,0.0243,0.0243,0.0243,0,0.0292,0.0312,0.0323,0.0341,0.0348,0.0362,0.0359,0.0364,0.0357,0.0351,0.0348,0.0322,0.0312,0.0302,0.0289,0.0282,0.0265,0.025,0.0235,0.0246,0.0214,0.021,0.0246,0.0246,0.0245,0.0245,0,0,0.0312,0.0343,0.0347,0.0367,0.0374,0.0386,0.0401,0.0411,0.0426,0.0406,0.0417,0.0393,0.0372,0.0362,0.0337,0.0311,0.0289,0.0285,0.0282,0.026,0.0225,0.0206,0.0199,0.0271,0.027,0.027,0.0202,0,0.0341,0.0385,0.0391,0.0431,0.0454,0.0449,0.0467,0.0471,0.0468,0.0472,0.0435,0.0434,0.0397,0.0393,0.0361,0.0311,0.028,0.0308,0.0214,0.0211,0.0196,0.0194,0.0269,0.0199,0.0198,0.0197,0.0197,0,0.0373,0.0401,0.0448,0.0486,0.0496,0.0515,0.0544,0.056,0.0555,0.0551,0.0532,0.05,0.0466,0.0429,0.0342,0.0361,0.03,0.0252,0.0248,0.0214,0.0185,0.0184,0.0189,0.0189,0.019,0.0191,0.0191,0,0.0394,0.0441,0.0483,0.0496,0.0531,0.0555,0.0575,0.0585,0.0613,0.0604,0.0612,0.0555,0.0536,0.045,0.035,0.0347,0.0244,0.0227,0.0147,0.0145,0.0164,0.0164,0.016,0.016,0.0161,0.0161,0.0161,0,0.0422,0.0457,0.0499,0.0523,0.0578,0.0591,0.0646,0.0656,0.0677,0.0707,0.0657,0.0657,0.054,0.0466,0.0365,0.0245,0.0253,0.0152,0.0127,0.0183,0.0186,0.016,0.0161,0.0158,0.0159,0.0159,0.016,0,0.0438,0.0463,0.0518,0.0569,0.0591,0.0633,0.0703,0.0741,0.0752,0.0788,0.0788,0.0736,0.0639,0.051,0.0369,0.0274,0.0155,0.0108,0.0179,0.0159,0.0069,0.0073,0.0016,0.0014,0.0013,0.0013,0.0012,0,0.0449,0.0478,0.0554,0.0595,0.0623,0.069,0.0738,0.0777,0.0819,0.0834,0.0849,0.0775,0.0716,0.0508,0.0368,0.0166,0.0133,0.0064,0.0063,0.0074,0.0055,0.0061,0.0066,0.001,0.001,0.001,0.0009,0,0.0469,0.0498,0.0543,0.0627,0.0689,0.0764,0.0833,0.0867,0.0906,0.0916,0.0895,0.0788,0.0676,0.0511,0.0352,0.0207,0.0104,0.0052,0.0053,0.0052,0.0066,0.005,0.0056,0.0006,0.0006,0.0007,0.0007,0,0.0485,0.0518,0.0579,0.0653,0.0735,0.0811,0.085,0.0894,0.0933,0.094,0.0931,0.0811,0.0746,0.0533,0.0389,0.0241,0.0199,0.014,0.0136,0.0138,0.0188,0.0225,0.0193,0,0,0,0,0,0.0496,0.0533,0.0601,0.0683,0.0766,0.0818,0.09,0.0932,0.0964,0.0953,0.0943,0.0837,0.0628,0.0549,0.0398,0.0359,0.0167,0.0174,0.0095,-0.0014,-0.001,0.0026,0,0,0,0,0,0,0.0502,0.0562,0.0596,0.0693,0.0754,0.0849,0.0906,0.0933,0.0927,0.0934,0.0833,0.0782,0.0589,0.0713,0.039,0.0347,0.0271,0.0083,0.0079,-0.0017,-0.0013,-0.001,0.0029,0,0,0,0,0]}]]